Location: Aurora Center
(43.5271°N, 98.5894°W)
Time: 00:12:32
(UTC-05:00)

BlueWalker 3 - Pass Details

Date: 27 June 2024
Orbit: 480 x 492 km, 53.2° (Epoch: 15 July)

Event Time Altitude Azimuth Distance (km) Brightness Sun altitude
Rises 00:32:49 0° 307° (NW) 2,541 6.3 -21.5°
Reaches altitude 10° 00:35:12 10° 319° (NW) 1,658 5.5 -21.7°
Maximum altitude 00:38:28 28° 20° (NNE) 924 3.8 -21.8°
Enters shadow 00:41:01 14° 75° (ENE) 1,411 4.2 -21.9°
